GW5899 Weather Reports


time (UTC)temp
C
wind
direction
speed
KPH
gust
KPH
rain 1hr
cm
rain 24hr
cm
rain mn
cm
humidity
%
barometer
mb
20260503051054 5 244 0.0 0.0 0.00 0.00 0.00 69 1013.3
20260503050549 5 246 0.0 1.6 0.00 0.00 0.00 68 1013.5
20260503050047 5 242 0.0 0.0 0.00 0.00 0.00 68 1013.4
20260503045544 5 233 3.2 3.2 0.00 0.00 0.00 68 1013.4
20260503045041 5 245 3.2 3.2 0.00 0.00 0.00 68 1013.5
20260503044538 5 240 1.6 3.2 0.00 0.00 0.00 69 1013.3
20260503044036 5 239 3.2 3.2 0.00 0.00 0.00 68 1013.4
20260503043531 5 252 1.6 1.6 0.00 0.00 0.00 69 1013.6
20260503043028 5 246 0.0 0.0 0.00 0.00 0.00 69 1013.5
20260503042525 5 239 0.0 1.6 0.00 0.00 0.00 69 1013.7
20260503042021 5 246 0.0 0.0 0.00 0.00 0.00 70 1013.6
20260503041518 5 246 1.6 1.6 0.00 0.00 0.00 70 1013.6
20260503041016 5 243 1.6 3.2 0.00 0.00 0.00 69 1013.6
20260503040514 5 241 3.2 3.2 0.00 0.00 0.00 70 1013.6
20260503040011 5 245 1.6 1.6 0.00 0.03 0.03 71 1013.5
20260503035507 5 247 3.2 3.2 0.00 0.03 0.03 69 1013.5
20260503035005 5 223 4.8 4.8 0.00 0.03 0.03 69 1013.6
20260503034502 5 240 3.2 3.2 0.00 0.03 0.03 70 1013.7
20260503033959 5 254 3.2 3.2 0.00 0.03 0.03 70 1013.6
20260503033456 5 238 3.2 3.2 0.00 0.03 0.03 70 1013.7
20260503032954 5 236 1.6 1.6 0.00 0.03 0.03 70 1013.8
20260503032452 5 243 1.6 1.6 0.00 0.03 0.03 69 1013.6
20260503031949 5 247 3.2 4.8 0.00 0.03 0.03 70 1013.6
20260503031447 5 245 1.6 1.6 0.00 0.03 0.03 70 1013.8
20260503030943 5 239 1.6 1.6 0.00 0.03 0.03 70 1013.8
20260503030440 5 254 1.6 1.6 0.00 0.03 0.03 70 1013.8
20260503025937 5 228 1.6 3.2 0.00 0.03 0.03 70 1013.8
20260503025434 5 251 3.2 4.8 0.00 0.03 0.03 69 1013.8
20260503024932 5 250 1.6 3.2 0.00 0.03 0.03 71 1013.8
20260503024428 5 231 3.2 3.2 0.00 0.03 0.03 71 1013.9
20260503023925 5 265 0.0 1.6 0.00 0.03 0.03 71 1013.8
20260503023422 5 246 1.6 3.2 0.00 0.03 0.03 72 1014.0
20260503022919 6 257 1.6 3.2 0.00 0.03 0.03 72 1014.1
20260503022420 6 266 1.6 1.6 0.00 0.03 0.03 71 1014.0
20260503021916 6 244 1.6 1.6 0.00 0.03 0.03 71 1014.0
20260503021412 6 273 3.2 3.2 0.00 0.03 0.03 70 1014.1
20260503020909 6 240 1.6 3.2 0.00 0.03 0.03 71 1014.0
20260503020407 6 256 3.2 4.8 0.00 0.03 0.03 70 1014.1
20260503015903 6 237 1.6 1.6 0.00 0.03 0.03 71 1014.0
20260503015400 6 239 1.6 3.2 0.00 0.03 0.03 71 1014.0
20260503014856 6 256 3.2 3.2 0.00 0.03 0.03 71 1014.2
20260503014354 6 237 1.6 3.2 0.00 0.03 0.03 70 1014.1
20260503013851 6 229 3.2 4.8 0.00 0.03 0.03 70 1014.1
20260503013348 6 258 1.6 1.6 0.00 0.03 0.03 70 1014.0
20260503012845 6 244 0.0 1.6 0.00 0.03 0.03 70 1014.0
20260503012343 6 247 1.6 1.6 0.00 0.03 0.03 70 1014.1
20260503011840 6 261 4.8 4.8 0.00 0.03 0.03 69 1014.1
20260503011336 6 240 4.8 4.8 0.00 0.03 0.03 69 1013.9
20260503010833 6 244 1.6 3.2 0.00 0.03 0.03 70 1014.0
20260503010330 6 245 0.0 1.6 0.00 0.03 0.03 69 1014.0
20260503005827 6 253 1.6 1.6 0.00 0.03 0.03 68 1014.0
20260503005324 6 269 1.6 1.6 0.00 0.03 0.03 70 1013.9
20260503004820 6 239 1.6 3.2 0.00 0.03 0.03 69 1013.8
20260503004318 6 246 0.0 1.6 0.00 0.03 0.03 69 1013.6
20260503003816 6 249 1.6 1.6 0.00 0.03 0.03 68 1013.7
20260503003312 6 252 4.8 6.4 0.00 0.03 0.03 67 1013.7
20260503002809 6 252 1.6 3.2 0.00 0.03 0.03 67 1013.7
20260503002306 6 255 1.6 3.2 0.00 0.03 0.03 67 1013.6
20260503001803 6 277 3.2 3.2 0.00 0.03 0.03 68 1013.7
20260503001259 6 250 0.0 1.6 0.00 0.03 0.03 70 1013.7
20260503000757 6 258 1.6 1.6 0.00 0.03 0.03 70 1013.6
20260503000254 6 254 0.0 1.6 0.00 0.03 0.03 71 1013.5
20260502235751 6 241 3.2 3.2 0.00 0.03 0.03 71 1013.6
20260502235248 6 256 1.6 1.6 0.00 0.03 0.03 71 1013.5
20260502234744 6 253 0.0 1.6 0.00 0.03 0.03 70 1013.5
20260502234242 6 231 4.8 4.8 0.00 0.03 0.03 69 1013.3
20260502233738 6 258 3.2 3.2 0.00 0.03 0.03 64 1013.4
20260502233235 6 305 8.0 11.3 0.00 0.03 0.03 64 1013.5
20260502232730 6 298 6.4 6.4 0.00 0.03 0.03 63 1013.4
20260502232228 6 251 3.2 4.8 0.00 0.03 0.03 64 1013.4
20260502231724 6 290 6.4 9.7 0.00 0.03 0.03 64 1013.3
20260502231222 6 311 8.0 9.7 0.00 0.03 0.03 63 1013.3
20260502230721 6 303 3.2 4.8 0.00 0.03 0.03 64 1013.3
20260502230219 6 273 4.8 6.4 0.00 0.03 0.03 64 1013.3
20260502225714 6 319 4.8 4.8 0.00 0.03 0.03 65 1013.3
20260502225212 6 337 6.4 9.7 0.00 0.03 0.03 63 1013.3
20260502224708 6 289 6.4 9.7 0.00 0.03 0.03 64 1013.4
20260502224204 6 255 3.2 3.2 0.00 0.03 0.03 64 1013.3
20260502223702 6 304 8.0 9.7 0.00 0.03 0.03 64 1013.5
20260502223200 6 292 3.2 4.8 0.00 0.03 0.03 64 1013.3
20260502222658 6 297 6.4 9.7 0.00 0.03 0.03 65 1013.5
20260502222154 6 284 4.8 4.8 0.00 0.03 0.03 66 1013.4
20260502221649 6 267 8.0 9.7 0.00 0.03 0.03 67 1013.5
20260502221147 6 289 4.8 4.8 0.00 0.03 0.03 67 1013.5
20260502220643 6 300 4.8 6.4 0.00 0.03 0.03 67 1013.4
20260502220139 6 296 6.4 6.4 0.00 0.03 0.03 67 1013.5
20260502215637 6 256 8.0 11.3 0.00 0.03 0.03 67 1013.3
20260502215133 6 305 6.4 12.9 0.00 0.03 0.03 67 1013.4
20260502214631 6 295 9.7 11.3 0.00 0.03 0.03 68 1013.5
20260502214127 6 310 6.4 6.4 0.00 0.03 0.03 68 1013.3
20260502213625 6 315 8.0 11.3 0.00 0.03 0.03 68 1013.2
20260502213122 7 265 6.4 9.7 0.00 0.03 0.03 67 1013.1
20260502212621 6 296 6.4 9.7 0.00 0.03 0.03 68 1013.3
20260502212119 6 322 6.4 6.4 0.00 0.03 0.03 67 1013.3
20260502211614 6 277 6.4 6.4 0.00 0.03 0.03 68 1013.1
20260502211111 6 313 4.8 4.8 0.00 0.03 0.03 69 1013.4
20260502210609 6 335 8.0 11.3 0.00 0.03 0.03 69 1013.2
20260502210105 6 296 6.4 6.4 0.00 0.03 0.03 68 1013.2
20260502205602 6 250 4.8 4.8 0.00 0.03 0.03 70 1013.3
20260502205059 6 277 12.9 17.7 0.00 0.03 0.03 69 1013.3
20260502204555 6 342 4.8 6.4 0.00 0.03 0.03 70 1013.4
20260502204053 6 284 3.2 4.8 0.00 0.03 0.03 71 1013.2
20260502203550 6 287 4.8 4.8 0.00 0.03 0.03 72 1013.4
20260502203048 6 309 6.4 9.7 0.00 0.03 0.03 71 1013.4
20260502202543 6 290 6.4 11.3 0.00 0.03 0.03 71 1013.5
20260502202042 7 260 12.9 16.1 0.00 0.03 0.03 70 1013.4
20260502201537 6 301 9.7 16.1 0.00 0.03 0.03 72 1013.4
20260502201034 6 309 6.4 6.4 0.00 0.03 0.03 72 1013.4
20260502200530 7 289 6.4 6.4 0.00 0.03 0.03 72 1013.6
20260502200028 7 304 9.7 12.9 0.00 0.03 0.03 70 1013.6
20260502195525 6 303 8.0 11.3 0.00 0.03 0.03 70 1013.5
20260502195021 6 335 6.4 9.7 0.00 0.03 0.03 72 1013.5
20260502194518 6 291 12.9 14.5 0.00 0.03 0.03 71 1013.5
20260502194014 5 290 4.8 4.8 0.00 0.03 0.03 73 1013.6
20260502193512 5 257 11.3 14.5 0.00 0.03 0.03 74 1013.7
20260502193008 5 283 8.0 9.7 0.00 0.03 0.03 74 1013.7
20260502192504 5 294 11.3 14.5 0.00 0.03 0.03 75 1013.8
20260502192002 5 294 6.4 9.7 0.00 0.03 0.03 76 1014.0
20260502191459 5 276 6.4 6.4 0.00 0.03 0.03 76 1013.8
20260502190956 5 292 8.0 9.7 0.00 0.03 0.03 75 1013.8
20260502190453 5 297 3.2 4.8 0.00 0.03 0.03 77 1013.8
20260502185949 5 261 6.4 11.3 0.00 0.03 0.03 77 1013.8
20260502185445 5 341 6.4 6.4 0.00 0.03 0.03 77 1013.8
20260502184942 5 313 14.5 20.9 0.00 0.03 0.03 75 1013.9
20260502184437 5 295 8.0 11.3 0.00 0.03 0.03 76 1013.5
20260502183934 5 300 9.7 12.9 0.00 0.03 0.03 75 1013.9
20260502183430 5 313 14.5 17.7 0.00 0.03 0.03 75 1013.8
20260502182926 5 305 8.0 14.5 0.00 0.03 0.03 75 1013.7
20260502182421 6 321 4.8 4.8 0.00 0.03 0.03 74 1013.8
20260502181918 7 256 9.7 14.5 0.00 0.03 0.03 71 1013.7
20260502181416 6 284 9.7 12.9 0.00 0.03 0.03 73 1013.7
20260502180914 6 340 9.7 11.3 0.00 0.03 0.03 72 1013.6
20260502180412 7 259 6.4 9.7 0.00 0.03 0.03 73 1013.6
20260502170330 5 341 9.7 12.9 0.00 0.03 0.03 75 1013.5
20260502164318 6 309 9.7 14.5 0.00 0.03 0.03 69 1013.6
20260502163814 6 273 8.0 11.3 0.00 0.03 0.03 69 1013.7
20260502163310 6 263 16.1 20.9 0.00 0.03 0.03 69 1013.6
20260502162808 6 356 6.4 12.9 0.00 0.03 0.03 73 1013.6
20260502162305 6 287 6.4 6.4 0.00 0.03 0.03 72 1013.6
20260502161800 6 336 11.3 12.9 0.00 0.03 0.03 70 1013.7
20260502161257 6 309 14.5 20.9 0.00 0.03 0.03 71 1013.7
20260502160755 6 330 11.3 16.1 0.00 0.03 0.03 70 1013.8
20260502160254 5 349 12.9 17.7 0.00 0.03 0.03 70 1013.7
20260502152223 5 268 9.7 14.5 0.00 0.03 0.03 74 1014.0
20260502151721 5 324 6.4 6.4 0.00 0.03 0.03 75 1013.9
20260502151218 5 274 12.9 16.1 0.00 0.03 0.03 74 1013.9
20260502150715 6 277 9.7 11.3 0.00 0.03 0.03 72 1013.8
20260502150212 6 309 9.7 14.5 0.00 0.03 0.03 72 1013.9
20260502130600 5 286 6.4 6.4 0.00 0.03 0.03 70 1014.3
20260502123543 5 273 3.2 3.2 0.00 0.03 0.03 73 1014.3
20260502123039 5 264 3.2 3.2 0.00 0.03 0.03 77 1014.4
20260502122536 5 225 4.8 6.4 0.00 0.03 0.03 76 1014.3
20260502122034 5 256 6.4 6.4 0.00 0.03 0.03 77 1014.4
20260502121531 5 244 9.7 12.9 0.00 0.03 0.03 75 1014.4
20260502121029 5 239 6.4 6.4 0.00 0.03 0.03 75 1014.2
20260502120525 5 239 4.8 4.8 0.00 0.03 0.03 78 1014.4
20260502115519 4 224 3.2 4.8 0.00 0.03 0.03 80 1014.4
20260502115015 4 217 6.4 11.3 0.00 0.03 0.03 80 1014.2
20260502114512 4 261 3.2 4.8 0.00 0.03 0.03 80 1014.2
20260502114009 3 352 6.4 9.7 0.00 0.03 0.03 81 1014.2
20260502113506 3 255 3.2 4.8 0.00 0.03 0.03 82 1014.2
20260502113005 3 241 3.2 4.8 0.00 0.03 0.03 81 1014.2
20260502112502 3 234 6.4 6.4 0.00 0.03 0.03 81 1014.1
20260502111959 3 241 1.6 3.2 0.00 0.03 0.03 82 1014.2
20260502111456 3 216 3.2 6.4 0.00 0.03 0.03 84 1014.3
20260502110954 3 246 3.2 4.8 0.00 0.03 0.03 83 1014.0
20260502110451 3 250 1.6 3.2 0.00 0.03 0.03 84 1014.3
20260502105949 2 254 4.8 6.4 0.00 0.03 0.03 85 1014.2
20260502105446 2 238 4.8 4.8 0.00 0.03 0.03 86 1014.0
20260502104944 2 220 3.2 3.2 0.00 0.03 0.03 87 1014.1
20260502104441 2 228 1.6 1.6 0.00 0.03 0.03 87 1014.0
20260502103938 2 246 3.2 3.2 0.00 0.03 0.03 87 1013.9
20260502103436 2 262 4.8 6.4 0.00 0.03 0.03 88 1013.9
20260502102932 2 253 3.2 4.8 0.00 0.03 0.03 87 1013.9
20260502102429 2 247 1.6 1.6 0.00 0.03 0.03 87 1013.8
20260502101926 2 245 1.6 1.6 0.00 0.03 0.03 87 1013.6
20260502101425 2 235 1.6 3.2 0.00 0.03 0.03 87 1013.6
20260502100922 2 249 4.8 6.4 0.00 0.03 0.03 86 1013.6
20260502100422 2 228 1.6 3.2 0.00 0.03 0.03 86 1013.7
20260502091355 3 259 3.2 4.8 0.00 0.03 0.03 83 1013.1
20260502090853 3 249 4.8 4.8 0.00 0.03 0.03 83 1013.2
20260502090349 3 227 3.2 3.2 0.00 0.03 0.03 82 1013.1
20260502071244 5 276 6.4 6.4 0.00 0.03 0.03 80 1012.2
20260502070743 5 272 4.8 4.8 0.00 0.03 0.03 82 1012.0
20260502070240 5 267 3.2 3.2 0.00 0.03 0.03 81 1012.1
20260502065739 5 260 4.8 6.4 0.00 0.03 0.03 81 1012.2
20260502065236 5 316 6.4 6.4 0.18 0.03 0.03 82 1012.4
20260502064734 5 259 6.4 6.4 0.18 0.03 0.03 83 1012.2
20260502064232 5 270 8.0 11.3 0.00 0.00 0.00 83 1012.2
20260502063729 5 279 1.6 3.2 0.00 0.00 0.00 87 1012.2
20260502063227 5 293 1.6 3.2 0.00 0.00 0.00 87 1012.2
20260502062724 5 248 0.0 0.0 0.00 0.00 0.00 86 1012.3
20260502062222 5 275 1.6 6.4 0.00 0.00 0.00 87 1012.3
20260502061720 5 247 1.6 3.2 0.00 0.00 0.00 88 1012.3
20260502061217 5 247 0.0 0.0 0.00 0.00 0.00 88 1012.3
20260502060712 5 241 0.0 0.0 0.00 0.00 0.00 89 1012.3
20260502060208 5 246 0.0 0.0 0.00 0.00 0.00 90 1012.3
20260502055706 5 228 0.0 0.0 0.00 0.00 0.00 91 1012.3
20260502055204 5 241 0.0 0.0 0.00 0.00 0.00 92 1012.5
20260502054703 5 252 0.0 0.0 0.00 0.00 0.00 92 1012.3
20260502054200 5 252 0.0 0.0 0.00 0.00 0.00 93 1012.3
20260502053657 5 245 0.0 0.0 0.00 0.00 0.00 93 1012.4
20260502053154 5 240 0.0 0.0 0.00 0.00 0.00 94 1012.5
20260502052652 5 245 0.0 0.0 0.00 0.00 0.00 94 1012.4
20260502052150 5 246 0.0 0.0 0.00 0.00 0.00 94 1012.3
20260502051648 5 247 0.0 0.0 0.00 0.00 0.00 94 1012.4